Location: Cabeza Gorda
(40.0667°N, 4.9667°W)
Time: 19:19:20
(UTC+00:00)

Cosmos 1763 Rocket - Pass Details

Date: 15 January 2026
Orbit: 729 x 773 km, 74.0° (Epoch: 10 February)

Event Time Altitude Azimuth Distance (km) Brightness Sun altitude
Rises 06:34:50 0° 346° (NNW) 3,159 6.4 -12.4°
Reaches altitude 10° 06:37:16 10° 352° (N) 2,235 5.7 -11.9°
Maximum altitude 06:42:09 47° 67° (ENE) 964 4.4 -11.0°
Drops below altitude 10° 06:47:01 10° 141° (SE) 2,238 6.9 -10.2°
Sets 06:49:27 0° 147° (SSE) 3,163 7.6 -9.7°
